DW8185 Weather Reports


Display with metric or nautical units.
time (UTC)temp
F
wind
direction
speed
MPH
gust
MPH
rain 1hr
in
rain 24hr
in
rain mn
in
humidity
%
barometer
mb
20191020071557 60 309 0.0 0.0 0.00 0.24 0.00 55 1009.2
20191020070127 60 310 0.0 0.0 0.00 0.24 0.00 55 1009.1
20191020064623 61 309 0.0 0.0 0.00 0.28 0.00 55 1009.2
20191020063148 61 310 0.0 0.0 0.00 0.28 0.00 55 1009.1
20191020061553 61 309 0.0 0.0 0.00 0.28 0.00 55 1009.1
20191020060044 61 309 0.0 0.0 0.00 0.28 0.00 55 1009.1
20191020054609 62 309 0.0 0.0 0.00 0.36 0.00 55 1009.1
20191020053043 62 310 0.0 0.0 0.00 0.36 0.00 55 1009.1
20191020051543 63 309 0.0 0.0 0.00 0.36 0.00 55 1009.1
20191020050128 63 310 0.0 0.0 0.00 0.36 0.00 56 1009.2
20191020044522 64 310 0.0 0.0 0.00 0.36 0.36 57 1009.1
20191020043057 64 310 0.0 0.0 0.00 0.36 0.36 60 1009.2
20191020041519 65 309 0.0 0.0 0.00 0.36 0.36 62 1009.1
20191020040024 66 310 0.0 0.0 0.00 0.36 0.36 65 1009.1
20191020034519 67 310 0.0 1.0 0.00 0.36 0.36 67 1008.9
20191020033052 67 316 0.0 3.0 0.00 0.36 0.36 68 1008.8
20191020031517 68 302 0.0 4.0 0.00 0.36 0.36 68 1008.8
20191020030018 68 333 0.0 0.0 0.00 0.36 0.36 67 1008.9
20191020024525 68 281 0.0 0.0 0.00 0.36 0.36 67 1008.9
20191020023015 68 278 0.0 1.0 0.00 0.36 0.36 68 1008.9
20191020021511 68 265 0.0 0.0 0.00 0.36 0.36 68 1008.8
20191020020011 68 262 0.0 1.0 0.00 0.36 0.36 68 1008.6
20191020014507 68 271 0.0 1.0 0.00 0.36 0.36 69 1008.4
20191020013002 68 281 0.0 2.0 0.00 0.36 0.36 69 1008.1
20191020011915 68 276 0.0 2.0 0.00 0.36 0.36 69 1007.9
20191020010143 68 297 1.0 6.0 0.00 0.36 0.36 70 1007.6
20191020004658 68 261 0.0 5.0 0.00 0.36 0.36 71 1007.5
20191020003112 69 302 0.0 4.0 0.00 0.36 0.36 72 1007.3
20191020001624 69 310 3.0 6.0 0.00 0.36 0.36 72 1007.0
20191020000128 69 291 2.0 5.0 0.00 0.36 0.36 73 1006.8
20191019234619 69 298 3.0 7.0 0.00 0.36 0.36 73 1006.5
20191019233116 69 301 3.0 8.0 0.00 0.36 0.36 74 1006.3
20191019231655 70 15 2.0 11.0 0.00 0.36 0.36 74 1006.0
20191019230110 70 308 3.0 10.0 0.00 0.36 0.36 76 1005.8
20191019224624 71 304 4.0 12.0 0.00 0.37 0.36 77 1005.5
20191019223206 72 308 4.0 11.0 0.00 0.37 0.36 78 1005.3
20191019221646 72 315 3.0 9.0 0.00 0.37 0.36 78 1005.0
20191019220111 72 325 4.0 11.0 0.00 0.37 0.36 79 1004.8
20191019214620 73 302 2.0 8.0 0.00 0.40 0.36 79 1004.7
20191019213155 73 309 2.0 6.0 0.00 0.40 0.36 78 1004.5
20191019211619 73 319 4.0 8.0 0.00 0.40 0.36 78 1004.3
20191019210122 72 326 4.0 12.0 0.00 0.40 0.36 79 1004.2
20191019203100 72 329 5.0 11.0 0.00 0.46 0.36 79 1004.2
20191019201604 72 342 5.0 12.0 0.00 0.46 0.36 79 1004.0
20191019200050 73 308 4.0 12.0 0.00 0.46 0.36 79 1003.8
20191019194600 72 316 3.0 12.0 0.00 0.60 0.36 79 1003.8
20191019193056 72 308 6.0 14.0 0.00 0.60 0.36 79 1003.6
20191019191654 72 342 4.0 9.0 0.00 0.60 0.36 79 1003.8
20191019190036 71 327 4.0 12.0 0.00 0.60 0.36 79 1003.8
20191019184551 71 334 5.0 14.0 0.00 0.63 0.36 79 1003.8
20191019183045 72 306 4.0 14.0 0.00 0.63 0.36 79 1003.9
20191019181613 72 292 7.0 13.0 0.00 0.63 0.36 79 1003.9
20191019180103 72 297 5.0 12.0 0.00 0.63 0.36 79 1004.1
20191019174541 72 301 4.0 16.0 0.00 0.63 0.36 78 1004.2
20191019173059 71 295 6.0 14.0 0.00 0.63 0.36 78 1004.3
20191019171524 70 330 6.0 12.0 0.00 0.63 0.36 74 1004.6
20191019170026 69 333 4.0 12.0 0.00 0.63 0.36 66 1004.8
20191019164528 68 309 6.0 11.0 0.00 0.63 0.36 64 1005.0
20191019163025 68 294 6.0 13.0 0.00 0.63 0.36 61 1005.0
20191019161511 67 336 4.0 14.0 0.00 0.63 0.36 56 1005.0
20191019160010 66 288 4.0 14.0 0.00 0.63 0.36 54 1005.0
20191019154504 66 299 5.0 11.0 0.00 0.63 0.36 52 1005.1
20191019153001 65 288 4.0 11.0 0.00 0.63 0.36 53 1005.0
20191019151500 65 324 3.0 12.0 0.01 0.63 0.36 53 1004.9
20191019150144 65 329 5.0 11.0 0.04 0.63 0.36 53 1004.8
20191019144651 65 315 1.0 6.0 0.08 0.63 0.36 53 1004.8
20191019143311 65 293 3.0 7.0 0.10 0.63 0.36 53 1004.6
20191019141623 66 296 2.0 7.0 0.10 0.62 0.35 53 1004.5
20191019140131 65 321 2.0 7.0 0.07 0.57 0.31 53 1004.3
20191019134638 65 323 3.0 9.0 0.05 0.55 0.28 53 1004.0
20191019133121 65 338 1.0 7.0 0.04 0.53 0.26 53 1003.9
20191019131614 65 328 2.0 8.0 0.05 0.52 0.25 53 1003.8
20191019130136 64 326 4.0 9.0 0.04 0.51 0.24 53 1003.8
20191019124841 64 349 2.0 9.0 0.04 0.50 0.23 53 1003.7
20191019123124 64 51 1.0 7.0 0.02 0.48 0.21 53 1003.6
20191019121643 64 310 2.0 7.0 0.02 0.47 0.20 53 1003.6
20191019120139 64 337 3.0 6.0 0.03 0.47 0.20 54 1003.6
20191019114624 65 3 4.0 12.0 0.02 0.46 0.19 53 1003.6
20191019113208 64 305 4.0 9.0 0.02 0.46 0.19 53 1003.6
20191019111625 64 305 1.0 7.0 0.01 0.45 0.18 53 1003.6
20191019110117 63 319 3.0 9.0 0.01 0.44 0.17 54 1003.6
20191019104646 63 9 4.0 8.0 0.01 0.44 0.17 54 1003.5
20191019103104 63 278 0.0 9.0 0.01 0.44 0.17 54 1003.5
20191019101601 63 319 1.0 9.0 0.01 0.44 0.17 54 1003.3
20191019100134 62 307 4.0 10.0 0.00 0.43 0.16 55 1003.4
20191019094613 62 321 5.0 11.0 0.00 0.43 0.16 54 1003.4
20191019093112 62 295 0.0 8.0 0.00 0.43 0.16 55 1003.6
20191019091545 62 335 2.0 9.0 0.00 0.43 0.16 55 1003.7
20191019090053 62 43 0.0 8.0 0.02 0.43 0.16 55 1003.6
20191019084553 61 330 1.0 13.0 0.03 0.43 0.16 55 1003.9
20191019083106 61 309 1.0 8.0 0.03 0.43 0.16 56 1003.9
20191019081622 61 338 3.0 9.0 0.03 0.43 0.16 56 1003.9
20191019080057 61 318 2.0 11.0 0.02 0.41 0.14 56 1004.3
20191019074532 61 308 3.0 11.0 0.04 0.40 0.13 56 1004.6
20191019073039 61 309 2.0 10.0 0.05 0.40 0.13 56 1004.7